Content
SEND FEEDBACK

Daily
Averages
Monthly
Summary
United States of America

HOMER - EAGLE LAKE, ALASKA


Home > North America > United States > Alaska
Elevation: 150 feet     Latitude: 59 50N     Longitude: 150 58W

WEATHER
 
SELECT A DAY
Number of Records: 194,202;   Date Range: 1/1/95 - 9/30/14
 
SHARE

PRINT THIS DATA

[ ← Previous Day ]
WEATHER ALMANAC - JANUARY 23, 2013
[ Next Day → ]
[ °C ]   °F
Weather ElementAverageHighLow
Temperature38 °F42.1 °F (4:53 pm)34 °F (6:53 am)
Dewpoint30.5 °F32 °F (11:53 am)28.9 °F (6:53 am)
Humidity74.8 %85 % (5:53 am)65 % (4:53 pm)
Barometer29.24 in29.33 in (1:53 am)29.19 in (3:53 pm)
Wind Speed2.6 mph9.2 mph (8:53 pm)
Weather ElementAverage
Visibility10 mi
Wind DirectionENE (73.6 °)

Weather ElementTotal
Precipitation---
Heating Degree Days27 (Base 65)
Averaged from 22 records on January 23, 2013
WEATHER CONDITIONS BREAKOUT
WIND DIRECTION BREAKOUT
WEATHER BY HOUR - JANUARY 23, 2013
[ °C ]   °F
Local TimeTemperatureDewpointHumidityBarometerVisibilityWind DirectionWind SpeedGust SpeedPrecipitationEventsConditions
1:53 AM37.0 °F30.0 °F76 %29.33 in10.0 miESE (120°)4.6 mphMostly Cloudy
3:53 AM37.0 °F30.9 °F79 %29.29 in10.0 miCalmMostly Cloudy
4:53 AM35.1 °F30.0 °F82 %29.27 in10.0 miNNE (20°)4.6 mphMostly Cloudy
5:53 AM35.1 °F30.9 °F85 %29.26 in10.0 miCalmMostly Cloudy
6:53 AM34.0 °F28.9 °F82 %29.25 in10.0 miNW (320°)3.5 mphOvercast
7:53 AM36.0 °F30.9 °F82 %29.24 in10.0 miCalmOvercast
8:53 AM37.0 °F30.9 °F79 %29.24 in10.0 miNE (40°)3.5 mphOvercast
9:53 AM37.0 °F30.9 °F79 %29.24 in10.0 miCalmMostly Cloudy
10:53 AM37.9 °F30.9 °F76 %29.24 in10.0 miNorth (10°)3.5 mphScattered Clouds
11:53 AM39.9 °F32.0 °F73 %29.23 in10.0 miCalmMostly Cloudy
12:53 PM41.0 °F32.0 °F70 %29.21 in10.0 miCalmOvercast
1:53 PM39.0 °F32.0 °F76 %29.21 in10.0 miSouth (180°)3.5 mphOvercast
2:53 PM39.0 °F32.0 °F76 %29.20 in10.0 miSSW (210°)4.6 mphScattered Clouds
3:53 PM39.9 °F32.0 °F73 %29.19 in10.0 miCalmMostly Cloudy
4:53 PM42.1 °F30.9 °F65 %29.20 in10.0 miCalmOvercast
5:53 PM39.0 °F30.0 °F70 %29.22 in10.0 miCalmMostly Cloudy
6:53 PM37.9 °F30.0 °F73 %29.23 in10.0 miEast (80°)3.5 mphOvercast
7:53 PM39.9 °F28.9 °F65 %29.23 in10.0 miESE (110°)3.5 mphOvercast
8:53 PM39.9 °F30.0 °F68 %29.24 in10.0 miNE (40°)9.2 mphOvercast
9:53 PM37.9 °F28.9 °F70 %29.26 in10.0 miNNE (20°)3.5 mphScattered Clouds
10:53 PM39.0 °F30.0 °F70 %29.26 in10.0 miSE (130°)5.8 mphOvercast
11:53 PM36.0 °F28.9 °F76 %29.28 in10.0 miNNW (340°)4.6 mphMostly Cloudy
Hourly data recorded from PAHO, located miles away from Homer - Eagle Lake, Alaska







STORIES FROM OUR PARTNERS